TimeCDT,TemperatureF,Dew PointF,Humidity,Sea Level PressureIn,VisibilityMPH,Wind Direction,Wind SpeedMPH,Gust SpeedMPH,PrecipitationIn,Events,Conditions,WindDirDegrees,DateUTC
12:53 AM,35.1,27.0,72,30.27,10.0,SSE,11.5,-,N/A,,Clear,150,2012-10-29 05:53:00
1:53 AM,35.1,26.1,70,30.26,10.0,SSE,12.7,-,N/A,,Clear,150,2012-10-29 06:53:00
2:53 AM,33.1,25.0,72,30.27,10.0,SE,11.5,-,N/A,,Clear,140,2012-10-29 07:53:00
3:53 AM,33.1,25.0,72,30.25,10.0,SE,11.5,-,N/A,,Partly Cloudy,140,2012-10-29 08:53:00
4:53 AM,35.1,25.0,67,30.25,10.0,SSE,12.7,-,N/A,,Overcast,150,2012-10-29 09:53:00
5:53 AM,35.1,25.0,67,30.24,10.0,SE,11.5,-,N/A,,Mostly Cloudy,140,2012-10-29 10:53:00
6:53 AM,36.0,25.0,64,30.24,10.0,SE,12.7,-,N/A,,Overcast,140,2012-10-29 11:53:00
7:53 AM,36.0,25.0,64,30.25,10.0,ESE,9.2,-,N/A,,Overcast,120,2012-10-29 12:53:00
8:53 AM,37.0,25.0,62,30.26,10.0,SE,15.0,-,N/A,,Overcast,130,2012-10-29 13:53:00
9:53 AM,37.9,26.1,62,30.26,10.0,SSE,15.0,-,N/A,,Overcast,150,2012-10-29 14:53:00
10:53 AM,39.9,26.1,58,30.25,10.0,SSE,15.0,-,N/A,,Overcast,150,2012-10-29 15:53:00
11:53 AM,43.0,27.0,53,30.26,10.0,SSE,19.6,-,N/A,,Overcast,150,2012-10-29 16:53:00
12:53 PM,46.9,27.0,46,30.24,10.0,SSE,20.7,26.5,N/A,,Overcast,150,2012-10-29 17:53:00
1:53 PM,51.1,28.9,43,30.22,10.0,SSE,19.6,25.3,N/A,,Overcast,150,2012-10-29 18:53:00
2:53 PM,51.1,30.0,44,30.21,10.0,ESE,17.3,24.2,N/A,,Partly Cloudy,120,2012-10-29 19:53:00
3:53 PM,52.0,28.9,41,30.20,10.0,SE,18.4,-,N/A,,Scattered Clouds,140,2012-10-29 20:53:00
4:53 PM,51.1,27.0,39,30.20,10.0,SE,16.1,-,N/A,,Clear,140,2012-10-29 21:53:00
5:53 PM,46.9,30.0,52,30.20,10.0,ESE,15.0,-,N/A,,Clear,120,2012-10-29 22:53:00
6:53 PM,44.1,28.9,55,30.22,10.0,ESE,12.7,-,N/A,,Clear,120,2012-10-29 23:53:00
7:53 PM,42.1,28.9,60,30.22,10.0,ESE,12.7,-,N/A,,Clear,120,2012-10-30 00:53:00
8:53 PM,39.9,28.0,63,30.22,10.0,ESE,10.4,-,N/A,,Clear,110,2012-10-30 01:53:00
9:53 PM,37.9,28.0,68,30.23,10.0,ESE,9.2,-,N/A,,Clear,120,2012-10-30 02:53:00
10:53 PM,36.0,28.0,73,30.23,10.0,ESE,8.1,-,N/A,,Clear,120,2012-10-30 03:53:00
11:53 PM,35.1,27.0,72,30.22,10.0,ESE,8.1,-,N/A,,Clear,120,2012-10-30 04:53:00